H1 CPF 2 NER 2024 5 17 9 138 01 glonass138 H2 1805301 9138 43508 2024 5 17 0 0 0 2024 5 20 23 45 0 900 1 1 0 0 0 1 H9 10 0 60447 0.00000 0 -8293138.766 -18246918.863 15804979.794 10 0 60447 900.00000 0 -6834718.359 -16753391.468 18004073.929 10 0 60447 1800.00000 0 -5073998.542 -15218350.261 19854182.025 10 0 60447 2700.00000 0 -3036153.904 -13703079.814 21319458.831 10 0 60447 3600.00000 0 -758305.362 -12264457.191 22371502.690 10 0 60447 4500.00000 0 1711768.592 -10952610.526 22989901.327 10 0 60447 5400.00000 0 4317368.116 -9808878.416 23162625.466 10 0 60447 6300.00000 0 6994985.163 -8864154.515 22886263.091 10 0 60447 7200.00000 0 9676707.451 -8137685.797 22166089.850 10 0 60447 8100.00000 0 12292815.106 -7636374.225 21015974.005 10 0 60447 9000.00000 0 14774463.709 -7354610.742 19458117.134 10 0 60447 9900.00000 0 17056343.530 -7274648.560 17522634.692 10 0 60447 10800.00000 0 19079205.355 -7367500.281 15246983.469 10 0 60447 11700.00000 0 20792148.339 -7594321.530 12675245.838 10 0 60447 12600.00000 0 22154574.723 -7908223.250 9857283.561 10 0 60447 13500.00000 0 23137729.666 -8256436.634 6847776.633 10 0 60447 14400.00000 0 23725761.434 -8582739.408 3705165.142 10 0 60447 15300.00000 0 23916257.033 -8830040.797 490514.421 10 0 60447 16200.00000 0 23720230.296 -8943015.326 -2733674.372 10 0 60447 17100.00000 0 23161562.501 -8870673.120 -5904684.742 10 0 60447 18000.00000 0 22275918.826 -8568756.711 -8960811.885 10 0 60447 18900.00000 0 21109186.261 -8001861.460 -11842571.528 10 0 60447 19800.00000 0 19715498.984 -7145188.293 -14493866.071 10 0 60447 20700.00000 0 18154934.834 -5985853.002 -16863084.359 10 0 60447 21600.00000 0 16490980.490 -4523695.217 -18904112.904 10 0 60447 22500.00000 0 14787872.636 -2771551.452 -20577238.291 10 0 60447 23400.00000 0 13107927.587 -754979.411 -21849922.847 10 0 60447 24300.00000 0 11508972.020 1488555.965 -22697438.393 10 0 60447 25200.00000 0 10041982.890 3911001.469 -23103345.926 10 0 60447 26100.00000 0 8749035.526 6455485.077 -23059812.147 10 0 60447 27000.00000 0 7661645.503 9058462.403 -22567757.142 10 0 60447 27900.00000 0 6799573.130 11652150.941 -21636830.758 10 0 60447 28800.00000 0 6170139.621 14167150.826 -20285218.593 10 0 60447 29700.00000 0 5768082.387 16535143.107 -18539281.763 10 0 60447 30600.00000 0 5575954.101 18691553.383 -16433037.785 10 0 60447 31500.00000 0 5565047.258 20578070.072 -14007492.979 10 0 60447 32400.00000 0 5696803.861 22144912.767 -11309839.628 10 0 60447 33300.00000 0 5924649.486 23352756.647 -8392533.757 10 0 60447 34200.00000 0 6196173.159 24174233.300 -5312271.773 10 0 60447 35100.00000 0 6455560.020 24594946.158 -2128886.113 10 0 60447 36000.00000 0 6646173.271 24613959.144 1095818.327 10 0 60447 36900.00000 0 6713175.705 24243739.152 4299264.114 10 0 60447 37800.00000 0 6606079.707 23509555.957 7419314.057 10 0 60447 38700.00000 0 6281117.777 22448365.722 10395473.267 10 0 60447 39600.00000 0 5703333.400 21107225.815 13170057.251 10 0 60447 40500.00000 0 4848303.960 19541307.959 15689303.716 10 0 60447 41400.00000 0 3703422.959 17811593.294 17904407.075 10 0 60447 42300.00000 0 2268687.275 15982345.788 19772456.265 10 0 60447 43200.00000 0 556955.828 14118469.340 21257258.571 10 0 60447 44100.00000 0 -1406332.056 12282858.361 22330034.379 10 0 60447 45000.00000 0 -3583967.965 10533851.595 22969970.214 10 0 60447 45900.00000 0 -5928282.973 8922894.445 23164620.044 10 0 60447 46800.00000 0 -8382900.594 7492506.247 22910147.474 10 0 60447 47700.00000 0 -10884862.886 6274636.348 22211404.264 10 0 60447 48600.00000 0 -13367043.045 5289476.748 21081843.378 10 0 60447 49500.00000 0 -15760745.808 4544780.282 19543267.641 10 0 60447 50400.00000 0 -17998388.901 4035712.466 17625417.992 10 0 60447 51300.00000 0 -20016155.035 3745243.088 15365408.209 10 0 60447 52200.00000 0 -21756504.638 3645061.110 12807015.858 10 0 60447 53100.00000 0 -23170444.777 3696974.610 9999842.124 10 0 60447 54000.00000 0 -24219459.374 3854736.921 6998355.849 10 0 60447 54900.00000 0 -24877019.517 4066222.034 3860839.639 10 0 60447 55800.00000 0 -25129609.907 4275857.160 648258.243 10 0 60447 56700.00000 0 -24977227.632 4427209.195 -2576928.797 10 0 60447 57600.00000 0 -24433331.572 4465614.821 -5751986.704 10 0 60447 58500.00000 0 -23524243.990 4340741.856 -8815132.798 10 0 60447 59400.00000 0 -22288029.128 4008972.031 -11706746.812 10 0 60447 60300.00000 0 -20772895.876 3435502.885 -14370539.683 10 0 60447 61200.00000 0 -19035191.916 2596078.222 -16754657.070 10 0 60447 62100.00000 0 -17137074.039 1478272.452 -18812695.356 10 0 60447 63000.00000 0 -15143953.059 82273.088 -20504609.748 10 0 60447 63900.00000 0 -13121821.119 -1578872.908 -21797496.459 10 0 60447 64800.00000 0 -11134573.973 -3479560.488 -22666233.661 10 0 60447 65700.00000 0 -9241440.700 -5582463.886 -23093968.890 10 0 60447 66600.00000 0 -7494628.512 -7839875.639 -23072443.705 10 0 60447 67500.00000 0 -5937280.888 -10195491.777 -22602149.687 10 0 60447 68400.00000 0 -4601833.802 -12586568.937 -21692313.210 10 0 60447 69300.00000 0 -3508837.842 -14946363.582 -20360709.703 10 0 60447 70200.00000 0 -2666294.198 -17206751.656 -18633311.412 10 0 60447 71100.00000 0 -2069530.821 -19300919.570 -16543775.855 10 0 60447 72000.00000 0 -1701622.259 -21166014.328 -14132785.216 10 0 60447 72900.00000 0 -1534333.787 -22745642.411 -11447249.795 10 0 60447 73800.00000 0 -1529548.461 -23992113.401 -8539391.236 10 0 60447 74700.00000 0 -1641115.402 -24868334.986 -5465723.673 10 0 60447 75600.00000 0 -1817040.048 -25349280.730 -2285952.856 10 0 60447 76500.00000 0 -2001922.789 -25422969.870 938185.049 10 0 60447 77400.00000 0 -2139542.158 -25090918.967 4144122.148 10 0 60447 78300.00000 0 -2175472.834 -24368047.341 7269671.518 10 0 60447 79200.00000 0 -2059627.480 -23282041.123 10254230.348 10 0 60447 80100.00000 0 -1748614.907 -21872203.276 13039950.213 10 0 60447 81000.00000 0 -1207814.949 -20187838.327 15572852.137 10 0 60447 81900.00000 0 -413082.487 -18286239.653 17803865.335 10 0 60447 82800.00000 0 647991.250 -16230363.501 19689770.176 10 0 60447 83700.00000 0 1975313.519 -14086286.570 21194027.971 10 0 60447 84600.00000 0 3556053.750 -11920552.573 22287482.372 10 0 60447 85500.00000 0 5364946.917 -9797517.579 22948919.628 10 0 60448 0.00000 0 7365124.947 -7776803.816 23165477.556 10 0 60448 900.00000 0 9509444.089 -5910965.740 22932895.728 10 0 60448 1800.00000 0 11742251.830 -4243467.139 22255601.988 10 0 60448 2700.00000 0 14001525.048 -2807048.858 21146633.738 10 0 60448 3600.00000 0 16221289.429 -1622557.054 19627394.543 10 0 60448 4500.00000 0 18334221.874 -698279.146 17727250.077 10 0 60448 5400.00000 0 20274328.508 -29814.948 15482970.112 10 0 60448 6300.00000 0 21979587.369 399511.834 12938026.169 10 0 60448 7200.00000 0 23394445.829 617719.117 10141757.344 10 0 60448 8100.00000 0 24472068.234 662748.267 7148419.530 10 0 60448 9000.00000 0 25176239.232 580622.075 4016135.773 10 0 60448 9900.00000 0 25482842.214 423256.784 805767.880 10 0 60448 10800.00000 0 25380849.892 246021.059 -2420268.785 10 0 60448 11700.00000 0 24872784.400 105145.838 -5599223.885 10 0 60448 12600.00000 0 23974626.670 55095.621 -8669239.627 10 0 60448 13500.00000 0 22715178.161 146013.744 -11570562.486 10 0 60448 14400.00000 0 21134901.309 421351.138 -14246714.550 10 0 60448 15300.00000 0 19284287.247 915780.427 -16645600.751 10 0 60448 16200.00000 0 17221819.453 1653485.050 -18720529.604 10 0 60448 17100.00000 0 15011619.032 2646897.136 -20431127.007 10 0 60448 18000.00000 0 12720870.791 3895938.663 -21744124.931 10 0 60448 18900.00000 0 10417138.284 5387799.033 -22634009.569 10 0 60448 19800.00000 0 8165680.448 7097259.350 -23083516.447 10 0 60448 20700.00000 0 6026882.106 8987550.561 -23083963.160 10 0 60448 21600.00000 0 4053905.471 11011709.993 -22635413.668 10 0 60448 22500.00000 0 2290660.176 13114379.909 -21746671.401 10 0 60448 23400.00000 0 770175.757 15233973.016 -20435101.747 10 0 60448 24300.00000 0 -486556.682 17305114.536 -18726287.804 10 0 60448 25200.00000 0 -1471226.677 19261258.833 -16653526.375 10 0 60448 26100.00000 0 -2188305.348 21037371.221 -14257174.365 10 0 60448 27000.00000 0 -2654602.701 22572562.916 -11583858.525 10 0 60448 27900.00000 0 -2898301.785 23812569.051 -8685564.154 10 0 60448 28800.00000 0 -2957512.100 24711966.221 -5618620.783 10 0 60448 29700.00000 0 -2878404.852 25236037.064 -2442604.836 10 0 60448 30600.00000 0 -2713010.080 25362204.195 780819.144 10 0 60448 31500.00000 0 -2516769.760 25080973.928 3989095.876 10 0 60448 32400.00000 0 -2345951.060 24396350.847 7119991.882 10 0 60448 33300.00000 0 -2255029.534 23325706.437 10112799.631 10 0 60448 34200.00000 0 -2294153.073 21899107.844 12909509.924 10 0 60448 35100.00000 0 -2506793.755 20158135.238 15455930.154 10 0 60448 36000.00000 0 -2927686.630 18154237.446 17702727.232 10 0 60448 36900.00000 0 -3581142.263 15946694.499 19606375.669 10 0 60448 37800.00000 0 -4479804.184 13600271.754 21129993.261 10 0 60448 38700.00000 0 -5623903.725 11182662.733 22244049.104 10 0 60448 39600.00000 0 -7001044.136 8761826.255 22926931.017 10 0 60448 40500.00000 0 -8586523.923 6403327.576 23165362.104 10 0 60448 41400.00000 0 -10344187.139 4167792.829 22954658.808 10 0 60448 42300.00000 0 -12227766.545 2108581.410 22298825.599 10 0 60448 43200.00000 0 -14182665.205 269771.879 21210484.212 10 0 60448 44100.00000 0 -16148103.847 -1315455.838 19710638.247 10 0 60448 45000.00000 0 -18059545.892 -2625975.396 17828276.814 10 0 60448 45900.00000 0 -19851300.240 -3653358.558 15599823.809 10 0 60448 46800.00000 0 -21459194.039 -4401982.828 13068442.332 10 0 60448 47700.00000 0 -22823204.178 -4888597.886 10283206.588 10 0 60448 48600.00000 0 -23889937.400 -5141369.221 7298156.392 10 0 60448 49500.00000 0 -24614854.707 -5198439.340 4171251.883 10 0 60448 50400.00000 0 -24964145.940 -5106067.382 963248.466 10 0 60448 51300.00000 0 -24916174.741 -4916426.076 -2263486.182 10 0 60448 52200.00000 0 -24462431.991 -4685149.744 -5446189.630 10 0 60448 53100.00000 0 -23607956.400 -4468737.926 -8522932.377 10 0 60448 54000.00000 0 -22371203.504 -4321925.580 -11433830.897 10 0 60448 54900.00000 0 -20783367.704 -4295132.428 -14122221.522 10 0 60448 55800.00000 0 -18887185.248 -4432100.758 -16535771.281 10 0 60448 56700.00000 0 -16735268.150 -4767822.961 -18627503.308 10 0 60448 57600.00000 0 -14388038.863 -5326847.727 -20356716.249 10 0 60448 58500.00000 0 -11911352.418 -6122037.605 -21689779.369 10 0 60448 59400.00000 0 -9373905.751 -7153831.353 -22600787.833 10 0 60448 60300.00000 0 -6844542.701 -8410043.007 -23072065.500 10 0 60448 61200.00000 0 -4389567.327 -9866206.760 -23094505.744 10 0 60448 62100.00000 0 -2070177.510 -11486453.647 -22667744.093 10 0 60448 63000.00000 0 59874.575 -13224883.571 -21800159.725 10 0 60448 63900.00000 0 1956298.238 -15027375.286 -20508706.283 10 0 60448 64800.00000 0 3585873.322 -16833758.575 -18818575.658 10 0 60448 65700.00000 0 4927586.722 -18580257.617 -16762701.629 10 0 60448 66600.00000 0 5973250.532 -20202103.122 -14381113.312 10 0 60448 67500.00000 0 6727577.791 -21636203.750 -11720151.265 10 0 60448 68400.00000 0 7207714.615 -22823764.848 -8831561.716 10 0 60448 69300.00000 0 7442250.291 -23712744.726 -5771486.852 10 0 60448 70200.00000 0 7469748.796 -24260045.576 -2599371.035 10 0 60448 71100.00000 0 7336865.259 -24433347.340 623195.484 10 0 60448 72000.00000 0 7096128.121 -24212507.853 3833672.602 10 0 60448 72900.00000 0 6803481.686 -23590470.860 6969782.736 10 0 60448 73800.00000 0 6515693.530 -22573644.216 9970715.919 10 0 60448 74700.00000 0 6287736.639 -21181732.706 12778304.294 10 0 60448 75600.00000 0 6170256.951 -19447032.739 15338143.516 10 0 60448 76500.00000 0 6207233.060 -17413218.430 17600639.857 10 0 60448 77400.00000 0 6433926.561 -15133669.643 19521963.349 10 0 60448 78300.00000 0 6875209.220 -12669411.291 21064889.355 10 0 60448 79200.00000 0 7544337.275 -10086749.034 22199513.167 10 0 60448 80100.00000 0 8442224.577 -7454698.817 22903824.585 10 0 60448 81000.00000 0 9557245.551 -4842315.950 23164132.082 10 0 60448 81900.00000 0 10865577.104 -2316033.334 22975328.784 10 0 60448 82800.00000 0 12332066.276 62881.880 22340995.227 10 0 60448 83700.00000 0 13911588.735 2240648.933 21273336.714 10 0 60448 84600.00000 0 15550842.824 4172976.098 19792955.906 10 0 60448 85500.00000 0 17190505.629 5826662.990 17928464.177 10 0 60449 0.00000 0 18767662.101 7180736.453 15715938.429 10 0 60449 900.00000 0 20218407.470 8227073.835 13198231.436 10 0 60449 1800.00000 0 21480512.505 8970486.202 10424151.028 10 0 60449 2700.00000 0 22496042.915 9428260.614 7447519.103 10 0 60449 3600.00000 0 23213820.559 9629179.025 4326130.881 10 0 60449 4500.00000 0 23591623.207 9612056.041 1120633.195 10 0 60449 5400.00000 0 23598029.187 9423857.409 -2106656.248 10 0 60449 6300.00000 0 23213828.011 9117479.162 -5292965.285 10 0 60449 7200.00000 0 22432936.202 8749282.023 -8376295.046 10 0 60449 8100.00000 0 21262778.455 8376486.277 -11296634.297 10 0 60449 9000.00000 0 19724116.833 8054538.441 -13997135.757 10 0 60449 9900.00000 0 17850334.263 7834562.373 -16425230.547 10 0 60449 10800.00000 0 15686201.674 7761003.842 -18533658.244 10 0 60449 11700.00000 0 13286180.100 7869569.327 -20281391.895 10 0 60449 12600.00000 0 10712328.702 8185547.161 -21634439.577 10 0 60449 13500.00000 0 8031906.224 8722582.733 -22566506.807 10 0 60449 14400.00000 0 5314766.110 9481960.093 -23059507.012 10 0 60449 15300.00000 0 2630654.076 10452420.673 -23103910.414 10 0 60449 16200.00000 0 46520.688 11610527.069 -22698924.925 10 0 60449 17100.00000 0 -2376039.403 12921556.726 -21852506.009 10 0 60449 18000.00000 0 -4583115.423 14340888.006 -20581195.737 10 0 60449 18900.00000 0 -6530479.532 15815820.338 -18909794.586 10 0 60449 19800.00000 0 -8185174.846 17287751.934 -16870872.688 10 0 60449 20700.00000 0 -9526627.579 18694623.432 -14504130.360 10 0 60449 21600.00000 0 -10547238.564 19973524.738 -11855620.577 10 0 60449 22500.00000 0 -11252431.279 21063355.409 -8976848.786 10 0 60449 23400.00000 0 -11660156.288 21907426.722 -5923767.812 10 0 60449 24300.00000 0 -11799874.811 22455896.046 -2755687.705 10 0 60449 25200.00000 0 -11711065.980 22667931.242 465878.040 10 0 60449 26100.00000 0 -11441322.186 22513514.205 3678407.136 10 0 60449 27000.00000 0 -11044114.068 21974807.953 6819580.652 10 0 60449 27900.00000 0 -10576320.392 21047029.993 9828489.049 10 0 60449 28800.00000 0 -10095627.579 19738795.455 12646808.705 10 0 60449 29700.00000 0 -9657908.875 18071915.681 15219926.451 10 0 60449 30600.00000 0 -9314693.632 16080660.559 17497990.774 10 0 60449 31500.00000 0 -9110833.119 13810515.161 19436869.979 10 0 60449 32400.00000 0 -9082460.805 11316482.012 20998999.595 10 0 60449 33300.00000 0 -9255332.603 8660998.913 22154103.484 10 0 60449 34200.00000 0 -9643616.641 5911557.943 22879775.514 10 0 60449 35100.00000 0 -10249183.424 3138123.322 23161911.261 10 0 60449 36000.00000 0 -11061426.538 410453.953 22994981.826 10 0 60449 36900.00000 0 -12057622.073 -2204559.614 22382144.621 10 0 60449 37800.00000 0 -13203812.741 -4645434.721 21335188.783 10 0 60449 38700.00000 0 -14456180.826 -6858408.476 19874315.711 10 0 60449 39600.00000 0 -15762853.803 -8799426.941 18027758.140 10 0 60449 40500.00000 0 -17066068.230 -10435729.743 15831244.072 10 0 60449 41400.00000 0 -18304602.290 -11746964.674 13327314.744 10 0 60449 42300.00000 0 -19416375.707 -12725786.092 10564508.778 10 0 60449 43200.00000 0 -20341108.207 -13377912.344 7596427.302 10 0 60449 44100.00000 0 -21022924.697 -13721639.904 4480697.484 10 0 60449 45000.00000 0 -21412796.996 -13786834.819 1277854.241 10 0 60449 45900.00000 0 -21470718.330 -13613444.104 -1949838.156 10 0 60449 46800.00000 0 -21167517.726 -13249590.276 -5139601.335 10 0 60449 47700.00000 0 -20486236.356 -12749330.022 -8229370.601 10 0 60449 48600.00000 0 -19423006.307 -12170172.514 -11159010.478 10 0 60449 49500.00000 0 -17987393.285 -11570463.239 -13871493.445 10 0 60449 50400.00000 0 -16202187.545 -11006745.023 -16314017.873 10 0 60449 51300.00000 0 -14102650.751 -10531208.945 -18439042.641 10 0 60449 52200.00000 0 -11735249.584 -10189343.883 -20205217.657 10 0 60449 53100.00000 0 -9155928.676 -10017884.903 -21578191.760 10 0 60449 54000.00000 0 -6427994.796 -10043147.780 -22531282.183 10 0 60449 54900.00000 0 -3619700.556 -10279820.401 -23045992.657 10 0 60449 55800.00000 0 -801628.348 -10730262.265 -23112370.336 10 0 60449 56700.00000 0 1956016.569 -11384341.632 -22729195.026 10 0 60449 57600.00000 0 4586091.361 -12219817.104 -21903997.431 10 0 60449 58500.00000 0 7027067.903 -13203247.342 -20652906.551 10 0 60449 59400.00000 0 9225346.466 -14291390.355 -19000329.552 10 0 60449 60300.00000 0 11137235.403 -15433033.170 -16978470.701 10 0 60449 61200.00000 0 12730515.484 -16571174.543 -14626698.991 10 0 60449 62100.00000 0 13985525.079 -17645468.572 -11990777.060 10 0 60449 63000.00000 0 14895722.506 -18594826.054 -9121966.597 10 0 60449 63900.00000 0 15467703.807 -19360063.859 -6076027.937 10 0 60449 64800.00000 0 15720677.069 -19886490.593 -2912133.583 10 0 60449 65700.00000 0 15685417.169 -20126319.586 308282.978 10 0 60449 66600.00000 0 15402746.573 -20040807.555 3522720.473 10 0 60449 67500.00000 0 14921607.546 -19602028.976 6668821.674 10 0 60449 68400.00000 0 14296808.110 -18794211.538 9685580.280 10 0 60449 69300.00000 0 13586537.506 -17614576.567 12514519.431 10 0 60449 70200.00000 0 12849756.269 -16073649.065 15100819.302 10 0 60449 71100.00000 0 12143570.915 -14195024.139 17394372.374 10 0 60449 72000.00000 0 11520703.577 -12014599.183 19350746.604 10 0 60449 72900.00000 0 11027162.614 -9579303.222 20932038.644 10 0 60449 73800.00000 0 10700211.612 -6945375.487 22107601.458 10 0 60449 74700.00000 0 10566721.588 -4176263.782 22854633.109 10 0 60449 75600.00000 0 10641975.228 -1340228.639 23158616.006 10 0 60449 76500.00000 0 10928973.201 1492248.747 23013598.595 10 0 60449 77400.00000 0 11418271.807 4251148.717 22422314.204 10 0 60449 78300.00000 0 12088359.318 6869575.741 21396134.549 10 0 60449 79200.00000 0 12906555.969 9286292.285 19954858.277 10 0 60449 80100.00000 0 13830400.883 11448019.862 18126337.793 10 0 60449 81000.00000 0 14809468.814 13311412.537 15945950.548 10 0 60449 81900.00000 0 15787541.413 14844621.348 13455923.850 10 0 60449 82800.00000 0 16705042.614 16028384.745 10704525.174 10 0 60449 83700.00000 0 17501636.181 16856599.677 7745132.661 10 0 60449 84600.00000 0 18118876.127 17336349.422 4635203.125 10 0 60449 85500.00000 0 18502797.966 17487387.035 1435157.215 10 0 60450 0.00000 0 18606340.718 17341096.196 -1792796.306 10 0 60450 900.00000 0 18391496.331 16938973.329 -4985875.752 10 0 60450 1800.00000 0 17831094.288 16330695.624 -8081952.508 10 0 60450 2700.00000 0 16910144.703 15571856.858 -11020768.907 10 0 60450 3600.00000 0 15626681.423 14721467.550 -13745119.012 10 0 60450 4500.00000 0 13992068.189 13839325.949 -16201970.057 10 0 60450 5400.00000 0 12030753.578 12983371.868 -18343501.626 10 0 60450 6300.00000 0 9779483.878 12207136.050 -20128041.698 10 0 60450 7200.00000 0 7286006.076 11557393.508 -21520880.928 10 0 60450 8100.00000 0 4607314.635 11072120.464 -22494949.183 10 0 60450 9000.00000 0 1807514.927 10778841.338 -23031341.283 10 0 60450 9900.00000 0 -1044607.716 10693435.556 -23119681.951 10 0 60450 10800.00000 0 -3878212.244 10819454.269 -22758323.292 10 0 60450 11700.00000 0 -6623110.346 11147975.389 -21954371.406 10 0 60450 12600.00000 0 -9212446.681 11658002.534 -20723542.042 10 0 60450 13500.00000 0 -11585239.861 12317390.486 -19089848.529 10 0 60450 14400.00000 0 -13688679.084 13084257.532 -17085128.372 10 0 60450 15300.00000 0 -15480081.683 13908824.618 -14748418.041 10 0 60450 16200.00000 0 -16928431.111 14735603.199 -12125188.342 10 0 60450 17100.00000 0 -18015432.589 15505839.097 -9266455.503 10 0 60450 18000.00000 0 -18736043.779 16160108.878 -6227785.495 10 0 60450 18900.00000 0 -19098459.984 16640958.921 -3068211.277 10 0 60450 19800.00000 0 -19123556.164 16895475.643 150915.786 10 0 60450 20700.00000 0 -18843810.857 16877678.301 3367117.637 10 0 60450 21600.00000 0 -18301758.698 16550633.431 6518001.063 10 0 60450 22500.00000 0 -17548037.880 15888201.751 9542465.413 10 0 60450 23400.00000 0 -16639115.629 14876343.949 12381883.088 10 0 60450 24300.00000 0 -15634787.986 13513930.297 14981230.154 10 0 60450 25200.00000 0 -14595559.281 11813019.841 17290145.656 10 0 60450 26100.00000 0 -13580011.353 9798596.980 19263899.714 10 0 60450 27000.00000 0 -12642272.638 7507775.774 20864252.491 10 0 60450 27900.00000 0 -11829692.785 4988504.209 22060188.257 10 0 60450 28800.00000 0 -11180819.665 2297821.218 22828511.208 10 0 60450 29700.00000 0 -10723762.950 -500262.433 23154292.197 10 0 60450 30600.00000 0 -10475012.303 -3337172.963 23031158.247 10 0 60450 31500.00000 0 -10438759.439 -6142373.670 22461419.397 10 0 60450 32400.00000 0 -10606752.478 -8846050.048 21456030.278 10 0 60450 33300.00000 0 -10958688.956 -11381769.986 20034386.619 10 0 60450 34200.00000 0 -11463131.630 -13689009.804 18223959.827 10 0 60450 35100.00000 0 -12078909.327 -15715442.160 16059775.648 10 0 60450 36000.00000 0 -12756944.808 -17418891.290 13583745.840 10 0 60450 36900.00000 0 -13442433.465 -18768874.394 10843864.706 10 0 60450 37800.00000 0 -14077281.643 -19747664.959 7893285.026 10 0 60450 38700.00000 0 -14602701.986 -20350833.415 4789290.601 10 0 60450 39600.00000 0 -14961856.103 -20587242.311 1592184.937 10 0 60450 40500.00000 0 -15102432.352 -20478496.066 -1635882.334 10 0 60450 41400.00000 0 -14979048.832 -20057868.421 -4832128.224 10 0 60450 42300.00000 0 -14555378.700 -19368752.901 -7934364.042 10 0 60450 43200.00000 0 -13805906.467 -18462701.995 -10882213.237 10 0 60450 44100.00000 0 -12717239.439 -17397138.343 -13618294.760 10 0 60450 45000.00000 0 -11288917.300 -16232835.248 -16089347.914 10 0 60450 45900.00000 0 -9533684.185 -15031273.666 -18247276.001 10 0 60450 46800.00000 0 -7477210.393 -13851987.957 -20050087.785 10 0 60450 47700.00000 0 -5157274.306 -12750013.076 -21462718.034 10 0 60450 48600.00000 0 -2622437.914 -11773541.263 -22457711.052 10 0 60450 49500.00000 0 69729.324 -10961887.212 -23015753.986 10 0 60450 50400.00000 0 2854804.516 -10343847.361 -23126049.779 10 0 60450 51300.00000 0 5663953.764 -9936522.019 -22786522.931 10 0 60450 52200.00000 0 8426561.513 -9744649.325 -22003854.496 10 0 60450 53100.00000 0 11072937.541 -9760478.285 -20793346.058 10 0 60450 54000.00000 0 13536989.328 -9964185.321 -19178615.752 10 0 60450 54900.00000 0 15758748.998 -10324815.806 -17191132.569 10 0 60450 55800.00000 0 17686650.233 -10801709.972 -14869598.288 10 0 60450 56700.00000 0 19279461.109 -11346352.135 -12259189.348 10 0 60450 57600.00000 0 20507793.274 -11904564.465 -9410673.598 10 0 60450 58500.00000 0 21355125.636 -12418951.989 -6379419.418 10 0 60450 59400.00000 0 21818301.148 -12831495.070 -3224316.726 10 0 60450 60300.00000 0 21907477.390 -13086179.453 -6631.127 10 0 60450 61200.00000 0 21645534.484 -13131552.529 3211186.220 10 0 60450 62100.00000 0 21066966.662 -12923097.693 6366709.695 10 0 60450 63000.00000 0 20216305.256 -12425326.504 9398747.657 10 0 60450 63900.00000 0 19146140.405 -11613500.326 12248524.788 10 0 60450 64800.00000 0 17914825.263 -10474908.817 14860815.672 10 0 60450 65700.00000 0 16583959.488 -9009651.230 17185008.081 10 0 60450 66600.00000 0 15215757.612 -7230887.290 19176075.991 10 0 60450 67500.00000 0 13870412.372 -5164546.451 20795444.285 10 0 60450 68400.00000 0 12603562.884 -2848506.733 22011729.280 10 0 60450 69300.00000 0 11463972.943 -331276.195 22801341.583 10 0 60450 70200.00000 0 10491515.786 2329769.469 23148940.328 10 0 60450 71100.00000 0 9715548.834 5070521.564 23047730.516 10 0 60450 72000.00000 0 9153745.758 7822558.234 22499597.897 10 0 60450 72900.00000 0 8811434.312 10515750.730 21515078.630 10 0 60450 73800.00000 0 8681467.486 13080949.516 20113163.816 10 0 60450 74700.00000 0 8744633.502 15452639.953 18320941.851 10 0 60450 75600.00000 0 8970587.762 17571458.276 16173084.523 10 0 60450 76500.00000 0 9319268.118 19386463.882 13711185.598 10 0 60450 77400.00000 0 9742734.405 20857073.570 10982963.603 10 0 60450 78300.00000 0 10187355.215 21954577.054 8041343.252 10 0 60450 79200.00000 0 10596249.871 22663170.173 4943432.547 10 0 60450 80100.00000 0 10911882.402 22980462.153 1749415.061 10 0 60450 81000.00000 0 11078697.421 22917435.267 -1478621.168 10 0 60450 81900.00000 0 11045685.618 22497858.299 -4677895.057 10 0 60450 82800.00000 0 10768769.145 21757178.333 -7786159.994 10 0 60450 83700.00000 0 10212904.567 20740937.627 -10742922.721 10 0 60450 84600.00000 0 9353812.836 19502782.599 -13490628.960 10 0 60450 85500.00000 0 8179261.524 18102149.331 -15975791.664 99